• In Belarus
  • List of Countries
  • For 7 days
  • Water Temperature
  • Satellite Maps
  • Weather Map
  • Weather Widgets
  • user-avatar
    Login

    Hourly Weather Comayagua

    Today, 25 September, Tuesday

    Time Temperature Precipitation Wind Pressure Humidity
    00:00 +22°C° 0 mm 1 mps 708 mmHg 90%
    01:00 +22°C° 0 mm 1 mps 708 mmHg 92%
    02:00 +22°C° 0 mm 1 mps 707 mmHg 94%
    03:00 +22°C° 0 mm 1 mps 707 mmHg 96%
    04:00 +22°C° 0 mm 1 mps 707 mmHg 96%
    05:00 +22°C° 0 mm 1 mps 707 mmHg 96%
    06:00 +21°C° 0 mm 1 mps 707 mmHg 96%
    07:00 +24°C° 0 mm 1 mps 708 mmHg 83%
    08:00 +27°C° 0 mm 1 mps 709 mmHg 70%
    09:00 +29°C° 0 mm 1 mps 709 mmHg 58%
    10:00 +31°C° 0 mm 2 mps 709 mmHg 52%
    11:00 +32°C° 0 mm 2 mps 709 mmHg 46%
    12:00 +35°C° 0 mm 2 mps 708 mmHg 41%
    13:00 +34°C° 0 mm 2 mps 708 mmHg 43%
    14:00 +34°C° 0 mm 2 mps 707 mmHg 46%
    15:00 +32°C° 0 mm 2 mps 706 mmHg 49%
    16:00 +30°C° 0.5 mm 2 mps 707 mmHg 60%
    17:00 +28°C° 0.5 mm 2 mps 707 mmHg 71%
    18:00 +26°C° 0.5 mm 1 mps 707 mmHg 82%
    19:00 +25°C° 1.3 mm 1 mps 707 mmHg 86%
    20:00 +24°C° 1.3 mm 1 mps 708 mmHg 90%
    21:00 +24°C° 1.3 mm 1 mps 708 mmHg 94%
    22:00 +23°C° 1.6 mm 1 mps 708 mmHg 95%
    23:00 +23°C° 1.6 mm 1 mps 708 mmHg 95%

    Tomorrow, 26 September, Wednesday

    Time Temperature Precipitation Wind Pressure Humidity
    00:00 +23°C° 1.6 mm 1 mps 708 mmHg 96%
    01:00 +23°C° 1.2 mm 1 mps 708 mmHg 96%
    02:00 +23°C° 1.2 mm 1 mps 707 mmHg 96%
    03:00 +23°C° 1.2 mm 1 mps 707 mmHg 96%
    04:00 +23°C° 0.3 mm 1 mps 707 mmHg 96%
    05:00 +23°C° 0.3 mm 1 mps 707 mmHg 96%
    06:00 +23°C° 0.3 mm 1 mps 707 mmHg 96%
    07:00 +24°C° 0.1 mm 1 mps 708 mmHg 91%
    08:00 +25°C° 0.1 mm 1 mps 709 mmHg 87%
    09:00 +26°C° 0.1 mm 1 mps 709 mmHg 82%
    10:00 +27°C° 0.4 mm 1 mps 709 mmHg 79%
    11:00 +28°C° 0.4 mm 1 mps 708 mmHg 75%
    12:00 +29°C° 0.4 mm 1 mps 708 mmHg 72%
    13:00 +29°C° 0.8 mm 1 mps 707 mmHg 74%
    14:00 +29°C° 0.8 mm 1 mps 707 mmHg 76%
    15:00 +28°C° 0.8 mm 1 mps 706 mmHg 79%
    16:00 +27°C° 0.9 mm 1 mps 706 mmHg 83%
    17:00 +26°C° 0.9 mm 1 mps 706 mmHg 88%
    18:00 +24°C° 0.9 mm 1 mps 706 mmHg 92%
    19:00 +24°C° 0.4 mm 1 mps 707 mmHg 93%
    20:00 +24°C° 0.4 mm 1 mps 707 mmHg 94%
    21:00 +23°C° 0.4 mm 1 mps 708 mmHg 95%
    22:00 +23°C° 0.1 mm 1 mps 708 mmHg 96%
    23:00 +23°C° 0.1 mm 1 mps 708 mmHg 96%

    Day after tomorrow, 27 September, Thursday

    Time Temperature Precipitation Wind Pressure Humidity
    00:00 +22°C° 0.1 mm 1 mps 708 mmHg 96%
    01:00 +22°C° 0 mm 1 mps 707 mmHg 97%
    02:00 +22°C° 0 mm 1 mps 707 mmHg 97%
    03:00 +22°C° 0 mm 1 mps 706 mmHg 97%
    04:00 +22°C° 0 mm 1 mps 706 mmHg 97%
    05:00 +22°C° 0 mm 1 mps 707 mmHg 97%
    06:00 +22°C° 0 mm 1 mps 707 mmHg 97%
    07:00 +24°C° 0 mm 1 mps 708 mmHg 89%
    08:00 +26°C° 0 mm 1 mps 708 mmHg 81%
    09:00 +28°C° 0 mm 1 mps 709 mmHg 73%
    10:00 +29°C° 0 mm 1 mps 709 mmHg 64%
    11:00 +31°C° 0 mm 2 mps 708 mmHg 55%
    12:00 +34°C° 0 mm 2 mps 708 mmHg 47%
    13:00 +34°C° 0 mm 2 mps 707 mmHg 46%
    14:00 +34°C° 0 mm 2 mps 706 mmHg 46%
    15:00 +34°C° 0 mm 2 mps 706 mmHg 46%
    16:00 +31°C° 0.1 mm 2 mps 706 mmHg 55%
    17:00 +28°C° 0.1 mm 1 mps 706 mmHg 65%
    18:00 +26°C° 0.1 mm 1 mps 706 mmHg 74%
    19:00 +25°C° 0.2 mm 1 mps 707 mmHg 80%
    20:00 +24°C° 0.2 mm 1 mps 708 mmHg 86%
    21:00 +23°C° 0.2 mm 1 mps 708 mmHg 92%
    22:00 +23°C° 0 mm 1 mps 708 mmHg 93%
    23:00 +23°C° 0 mm 1 mps 708 mmHg 95%

    28 September, Friday

    Time Temperature Precipitation Wind Pressure Humidity
    00:00 +21°C° 0 mm 0 mps 708 mmHg 96%
    01:00 +22°C° 0 mm 1 mps 707 mmHg 96%
    02:00 +22°C° 0 mm 1 mps 707 mmHg 96%
    03:00 +22°C° 0 mm 1 mps 707 mmHg 97%
    04:00 +22°C° 0 mm 1 mps 707 mmHg 96%
    05:00 +22°C° 0 mm 1 mps 707 mmHg 96%
    06:00 +22°C° 0 mm 1 mps 708 mmHg 96%
    07:00 +24°C° 0 mm 1 mps 708 mmHg 87%
    08:00 +26°C° 0 mm 1 mps 709 mmHg 79%
    09:00 +28°C° 0 mm 2 mps 710 mmHg 70%
    10:00 +29°C° 0 mm 2 mps 709 mmHg 64%
    11:00 +30°C° 0 mm 2 mps 709 mmHg 59%
    12:00 +32°C° 0 mm 2 mps 708 mmHg 53%
    13:00 +31°C° 0.3 mm 2 mps 707 mmHg 57%
    14:00 +31°C° 0.3 mm 2 mps 707 mmHg 61%
    15:00 +30°C° 0.3 mm 2 mps 706 mmHg 65%
    16:00 +28°C° 1.3 mm 2 mps 706 mmHg 73%
    17:00 +27°C° 1.3 mm 1 mps 707 mmHg 82%
    18:00 +25°C° 1.3 mm 1 mps 707 mmHg 90%
    19:00 +24°C° 1.1 mm 1 mps 708 mmHg 92%
    20:00 +24°C° 1.1 mm 1 mps 708 mmHg 94%
    21:00 +23°C° 1.1 mm 1 mps 709 mmHg 96%
    22:00 +23°C° 0.4 mm 1 mps 708 mmHg 96%
    23:00 +23°C° 0.4 mm 1 mps 708 mmHg 96%

    29 September, Saturday

    Time Temperature Precipitation Wind Pressure Humidity
    00:00 +23°C° 0.4 mm 1 mps 708 mmHg 96%
    01:00 +23°C° 0 mm 1 mps 707 mmHg 96%
    02:00 +23°C° 0 mm 1 mps 707 mmHg 97%
    03:00 +23°C° 0 mm 1 mps 707 mmHg 97%
    04:00 +23°C° 0 mm 1 mps 707 mmHg 97%
    05:00 +23°C° 0 mm 1 mps 708 mmHg 97%
    06:00 +23°C° 0 mm 1 mps 708 mmHg 97%
    07:00 +24°C° 0.1 mm 1 mps 708 mmHg 91%
    08:00 +26°C° 0.1 mm 1 mps 709 mmHg 85%
    09:00 +27°C° 0.1 mm 2 mps 709 mmHg 79%
    10:00 +29°C° 0.3 mm 2 mps 709 mmHg 73%
    11:00 +30°C° 0.3 mm 2 mps 708 mmHg 67%
    12:00 +31°C° 0.3 mm 2 mps 708 mmHg 61%
    13:00 +31°C° 1 mm 2 mps 707 mmHg 65%
    14:00 +30°C° 1 mm 2 mps 707 mmHg 69%
    15:00 +30°C° 1 mm 2 mps 706 mmHg 72%
    16:00 +28°C° 1.7 mm 1 mps 706 mmHg 79%
    17:00 +26°C° 1.7 mm 1 mps 707 mmHg 85%
    18:00 +25°C° 1.7 mm 1 mps 707 mmHg 92%
    19:00 +24°C° 1.4 mm 1 mps 707 mmHg 93%
    20:00 +24°C° 1.4 mm 1 mps 708 mmHg 95%
    21:00 +23°C° 1.4 mm 1 mps 708 mmHg 96%
    22:00 +23°C° 0.8 mm 1 mps 708 mmHg 96%
    23:00 +23°C° 0.8 mm 1 mps 708 mmHg 96%

    30 September, Sunday

    Time Temperature Precipitation Wind Pressure Humidity
    00:00 +23°C° 0.8 mm 1 mps 708 mmHg 96%
    01:00 +23°C° 0.1 mm 1 mps 707 mmHg 96%
    02:00 +23°C° 0.1 mm 1 mps 707 mmHg 96%
    03:00 +22°C° 0.1 mm 1 mps 707 mmHg 97%
    04:00 +22°C° 0 mm 1 mps 707 mmHg 97%
    05:00 +22°C° 0 mm 1 mps 708 mmHg 97%
    06:00 +23°C° 0 mm 1 mps 708 mmHg 97%
    07:00 +24°C° 0 mm 1 mps 708 mmHg 90%
    08:00 +26°C° 0 mm 1 mps 709 mmHg 84%
    09:00 +27°C° 0 mm 1 mps 709 mmHg 78%
    10:00 +29°C° 0.1 mm 1 mps 709 mmHg 70%
    11:00 +31°C° 0.1 mm 1 mps 709 mmHg 62%
    12:00 +32°C° 0.1 mm 2 mps 708 mmHg 54%
    13:00 +32°C° 0.5 mm 2 mps 707 mmHg 57%
    14:00 +31°C° 0.5 mm 1 mps 707 mmHg 60%
    15:00 +31°C° 0.5 mm 1 mps 706 mmHg 63%
    16:00 +29°C° 0.9 mm 1 mps 706 mmHg 71%
    17:00 +27°C° 0.9 mm 1 mps 707 mmHg 79%
    18:00 +25°C° 0.9 mm 1 mps 707 mmHg 86%
    19:00 +25°C° 0.8 mm 1 mps 707 mmHg 89%
    20:00 +24°C° 0.8 mm 1 mps 708 mmHg 91%
    21:00 +23°C° 0.8 mm 1 mps 708 mmHg 94%
    22:00 +23°C° 0.4 mm 1 mps 708 mmHg 95%
    23:00 +21°C° 0.4 mm 0 mps 708 mmHg 95%
    Show more